Time,TemperatureF,DewpointF,PressureIn,WindDirection,WindDirectionDegrees,WindSpeedMPH,WindSpeedGustMPH,Humidity,HourlyPrecipIn,Conditions,Clouds,dailyrainin,SoftwareType,DateUTC
2013-02-05 00:04:00,43.4,42.0,30.00,North,4,0.0,1.0,96,0.00,,,0.00,weatherlink.com 1.10,2013-02-05 08:04:00,
2013-02-05 00:19:00,42.9,42.0,30.00,North,3,0.0,0.0,96,0.00,,,0.00,weatherlink.com 1.10,2013-02-05 08:19:00,
2013-02-05 00:34:00,42.5,42.0,30.00,North,4,0.0,1.0,96,0.00,,,0.00,weatherlink.com 1.10,2013-02-05 08:34:00,
2013-02-05 00:49:00,42.6,42.0,30.00,North,4,0.0,0.0,97,0.00,,,0.00,weatherlink.com 1.10,2013-02-05 08:49:00,
2013-02-05 01:04:00,42.8,42.0,30.00,NE,39,0.0,2.0,97,0.00,,,0.00,weatherlink.com 1.10,2013-02-05 09:04:00,
2013-02-05 01:19:00,43.3,43.0,30.00,NE,41,0.0,1.0,97,0.00,,,0.00,weatherlink.com 1.10,2013-02-05 09:19:00,
2013-02-05 01:34:00,43.5,43.0,30.00,ENE,70,0.0,1.0,97,0.00,,,0.00,weatherlink.com 1.10,2013-02-05 09:34:00,
2013-02-05 01:49:00,43.5,43.0,29.99,NNE,16,1.0,2.0,97,0.00,,,0.00,weatherlink.com 1.10,2013-02-05 09:49:00,
2013-02-05 02:04:00,43.8,43.0,29.99,NNE,22,0.0,1.0,97,0.00,,,0.00,weatherlink.com 1.10,2013-02-05 10:04:00,
2013-02-05 02:19:00,44.1,43.0,29.99,NNE,21,0.0,1.0,97,0.00,,,0.00,weatherlink.com 1.10,2013-02-05 10:19:00,
2013-02-05 02:34:00,44.1,43.0,29.99,NNE,22,0.0,1.0,97,0.00,,,0.00,weatherlink.com 1.10,2013-02-05 10:34:00,
2013-02-05 02:49:00,43.7,43.0,29.99,East,81,0.0,2.0,97,0.00,,,0.00,weatherlink.com 1.10,2013-02-05 10:49:00,
2013-02-05 03:04:00,43.9,43.0,29.99,NE,42,0.0,2.0,97,0.00,,,0.00,weatherlink.com 1.10,2013-02-05 11:04:00,
2013-02-05 03:19:00,44.1,43.0,29.99,NNW,336,1.0,3.0,97,0.00,,,0.00,weatherlink.com 1.10,2013-02-05 11:19:00,
2013-02-05 03:35:00,44.5,44.0,29.99,NNE,13,0.0,0.0,97,0.00,,,0.00,weatherlink.com 1.10,2013-02-05 11:35:00,
2013-02-05 03:50:00,44.3,44.0,29.99,East,86,0.0,1.0,97,0.00,,,0.00,weatherlink.com 1.10,2013-02-05 11:50:00,
2013-02-05 04:05:00,44.3,44.0,29.98,East,94,0.0,1.0,97,0.00,,,0.00,weatherlink.com 1.10,2013-02-05 12:05:00,
2013-02-05 04:19:00,44.7,44.0,29.98,North,356,3.0,4.0,98,0.00,,,0.00,weatherlink.com 1.10,2013-02-05 12:19:00,
2013-02-05 04:35:00,45.3,45.0,29.99,WNW,302,1.0,2.0,97,0.00,,,0.00,weatherlink.com 1.10,2013-02-05 12:35:00,
2013-02-05 04:49:00,45.0,44.0,29.99,North,354,0.0,5.0,97,0.00,,,0.00,weatherlink.com 1.10,2013-02-05 12:49:00,
2013-02-05 05:05:00,45.1,44.0,29.99,NNW,334,0.0,3.0,96,0.00,,,0.00,weatherlink.com 1.10,2013-02-05 13:05:00,
2013-02-05 05:20:00,45.2,44.0,29.98,NNE,25,1.0,1.0,95,0.00,,,0.00,weatherlink.com 1.10,2013-02-05 13:20:00,
2013-02-05 05:35:00,45.0,44.0,29.97,North,6,0.0,2.0,95,0.00,,,0.00,weatherlink.com 1.10,2013-02-05 13:35:00,
2013-02-05 05:50:00,45.1,44.0,29.98,North,9,0.0,1.0,95,0.00,,,0.00,weatherlink.com 1.10,2013-02-05 13:50:00,
2013-02-05 06:05:00,45.4,44.0,29.98,NNE,33,1.0,4.0,95,0.00,,,0.00,weatherlink.com 1.10,2013-02-05 14:05:00,
2013-02-05 06:20:00,45.5,44.0,29.98,ESE,106,0.0,5.0,95,0.00,,,0.00,weatherlink.com 1.10,2013-02-05 14:20:00,
2013-02-05 06:35:00,45.5,44.0,29.98,NNE,23,0.0,3.0,94,0.00,,,0.00,weatherlink.com 1.10,2013-02-05 14:35:00,
2013-02-05 06:50:00,45.5,44.0,29.99,NE,42,1.0,6.0,94,0.00,,,0.00,weatherlink.com 1.10,2013-02-05 14:50:00,
2013-02-05 07:05:00,45.5,44.0,29.99,NE,34,0.0,4.0,94,0.00,,,0.00,weatherlink.com 1.10,2013-02-05 15:05:00,
2013-02-05 07:20:00,45.6,44.0,30.00,North,360,0.0,4.0,94,0.00,,,0.00,weatherlink.com 1.10,2013-02-05 15:20:00,
2013-02-05 07:35:00,45.7,44.0,30.01,NNW,345,3.0,6.0,93,0.00,,,0.00,weatherlink.com 1.10,2013-02-05 15:35:00,
2013-02-05 07:50:00,45.8,44.0,30.01,North,352,6.0,7.0,92,0.00,,,0.00,weatherlink.com 1.10,2013-02-05 15:50:00,
2013-02-05 08:20:00,46.5,44.0,30.01,NE,48,0.0,5.0,90,0.00,,,0.00,weatherlink.com 1.10,2013-02-05 16:20:00,
2013-02-05 08:35:00,47.1,44.0,30.02,ESE,113,0.0,1.0,90,0.00,,,0.00,weatherlink.com 1.10,2013-02-05 16:35:00,
2013-02-05 08:50:00,47.4,44.0,30.02,NNE,18,0.0,1.0,88,0.00,,,0.00,weatherlink.com 1.10,2013-02-05 16:50:00,
2013-02-05 09:05:00,48.0,44.0,30.02,East,81,0.0,1.0,87,0.00,,,0.00,weatherlink.com 1.10,2013-02-05 17:05:00,
2013-02-05 09:20:00,48.7,45.0,30.03,East,93,0.0,1.0,86,0.00,,,0.00,weatherlink.com 1.10,2013-02-05 17:20:00,
2013-02-05 09:35:00,49.1,45.0,30.03,ESE,109,1.0,2.0,87,0.00,,,0.00,weatherlink.com 1.10,2013-02-05 17:35:00,
2013-02-05 09:50:00,50.2,46.0,30.03,NNW,327,1.0,2.0,85,0.00,,,0.00,weatherlink.com 1.10,2013-02-05 17:50:00,
2013-02-05 10:05:00,51.0,46.0,30.03,SSE,160,0.0,3.0,83,0.00,,,0.00,weatherlink.com 1.10,2013-02-05 18:05:00,
2013-02-05 10:20:00,51.2,46.0,30.03,ESE,120,1.0,2.0,82,0.00,,,0.00,weatherlink.com 1.10,2013-02-05 18:20:00,
2013-02-05 10:36:00,50.7,46.0,30.04,ENE,71,0.0,3.0,83,0.00,,,0.00,weatherlink.com 1.10,2013-02-05 18:36:00,
2013-02-05 10:51:00,50.6,46.0,30.04,SE,141,2.0,3.0,84,0.00,,,0.00,weatherlink.com 1.10,2013-02-05 18:51:00,
2013-02-05 11:06:00,51.0,46.0,30.04,East,83,2.0,4.0,83,0.00,,,0.00,weatherlink.com 1.10,2013-02-05 19:06:00,
2013-02-05 11:21:00,51.9,47.0,30.03,South,174,3.0,6.0,82,0.00,,,0.00,weatherlink.com 1.10,2013-02-05 19:21:00,
2013-02-05 11:36:00,52.8,47.0,30.03,ESE,111,4.0,5.0,80,0.00,,,0.00,weatherlink.com 1.10,2013-02-05 19:36:00,
2013-02-05 11:51:00,53.4,48.0,30.02,SE,124,4.0,6.0,81,0.00,,,0.00,weatherlink.com 1.10,2013-02-05 19:51:00,
2013-02-05 12:06:00,54.5,47.0,30.02,WSW,243,5.0,8.0,77,0.00,,,0.00,weatherlink.com 1.10,2013-02-05 20:06:00,
2013-02-05 12:21:00,53.1,47.0,30.01,South,179,4.0,6.0,80,0.00,,,0.00,weatherlink.com 1.10,2013-02-05 20:21:00,
2013-02-05 12:36:00,52.7,47.0,30.01,South,174,5.0,6.0,80,0.00,,,0.00,weatherlink.com 1.10,2013-02-05 20:36:00,
2013-02-05 12:51:00,52.1,46.0,30.00,West,268,3.0,7.0,81,0.00,,,0.00,weatherlink.com 1.10,2013-02-05 20:51:00,
2013-02-05 13:06:00,52.9,47.0,30.00,SSW,210,2.0,7.0,81,0.00,,,0.00,weatherlink.com 1.10,2013-02-05 21:06:00,
2013-02-05 13:21:00,53.1,47.0,30.00,SSW,200,2.0,7.0,79,0.00,,,0.00,weatherlink.com 1.10,2013-02-05 21:21:00,
2013-02-05 13:36:00,53.1,47.0,30.00,SE,143,3.0,6.0,79,0.00,,,0.00,weatherlink.com 1.10,2013-02-05 21:36:00,
2013-02-05 13:51:00,53.4,47.0,30.00,SE,146,1.0,7.0,79,0.00,,,0.00,weatherlink.com 1.10,2013-02-05 21:51:00,
2013-02-05 14:06:00,52.6,46.0,30.00,SSE,167,4.0,6.0,79,0.00,,,0.00,weatherlink.com 1.10,2013-02-05 22:06:00,
2013-02-05 14:21:00,53.1,47.0,29.99,SSE,165,2.0,5.0,80,0.00,,,0.00,weatherlink.com 1.10,2013-02-05 22:21:00,
2013-02-05 14:36:00,54.6,48.0,29.99,ESE,105,2.0,5.0,77,0.00,,,0.00,weatherlink.com 1.10,2013-02-05 22:36:00,
2013-02-05 14:51:00,54.9,48.0,29.99,SSE,166,3.0,5.0,77,0.00,,,0.00,weatherlink.com 1.10,2013-02-05 22:51:00,
2013-02-05 15:06:00,54.1,47.0,29.99,ESE,121,2.0,5.0,77,0.00,,,0.00,weatherlink.com 1.10,2013-02-05 23:06:00,
2013-02-05 15:21:00,54.6,47.0,29.99,SW,228,1.0,5.0,76,0.00,,,0.00,weatherlink.com 1.10,2013-02-05 23:21:00,
2013-02-05 15:51:00,54.4,47.0,30.00,South,181,1.0,5.0,76,0.00,,,0.00,weatherlink.com 1.10,2013-02-05 23:51:00,
2013-02-05 16:07:00,54.7,48.0,30.00,SSE,154,0.0,5.0,77,0.00,,,0.00,weatherlink.com 1.10,2013-02-06 00:07:00,
2013-02-05 16:22:00,54.8,47.0,30.00,SSE,167,1.0,5.0,76,0.00,,,0.00,weatherlink.com 1.10,2013-02-06 00:22:00,
2013-02-05 16:51:00,55.1,48.0,30.00,ESE,121,0.0,4.0,77,0.00,,,0.00,weatherlink.com 1.10,2013-02-06 00:51:00,
2013-02-05 17:07:00,54.0,48.0,30.01,South,191,1.0,4.0,79,0.00,,,0.00,weatherlink.com 1.10,2013-02-06 01:07:00,
2013-02-05 17:22:00,53.0,47.0,30.01,ESE,119,0.0,3.0,81,0.00,,,0.00,weatherlink.com 1.10,2013-02-06 01:22:00,
2013-02-05 17:36:00,51.3,47.0,30.01,ESE,115,1.0,3.0,85,0.00,,,0.00,weatherlink.com 1.10,2013-02-06 01:36:00,
2013-02-05 17:52:00,50.3,47.0,30.01,ENE,74,0.0,1.0,87,0.00,,,0.00,weatherlink.com 1.10,2013-02-06 01:52:00,
2013-02-05 18:06:00,49.6,47.0,30.01,ESE,118,0.0,1.0,89,0.00,,,0.00,weatherlink.com 1.10,2013-02-06 02:06:00,
2013-02-05 18:21:00,48.5,46.0,30.01,ESE,118,0.0,0.0,90,0.00,,,0.00,weatherlink.com 1.10,2013-02-06 02:21:00,
2013-02-05 18:37:00,48.0,46.0,30.02,ESE,105,0.0,1.0,91,0.00,,,0.00,weatherlink.com 1.10,2013-02-06 02:37:00,
2013-02-05 18:51:00,47.3,45.0,30.02,North,7,0.0,1.0,92,0.00,,,0.00,weatherlink.com 1.10,2013-02-06 02:51:00,
2013-02-05 19:07:00,46.9,45.0,30.02,East,101,0.0,1.0,93,0.00,,,0.00,weatherlink.com 1.10,2013-02-06 03:07:00,
2013-02-05 19:21:00,46.3,44.0,30.02,NNE,25,0.0,1.0,93,0.00,,,0.00,weatherlink.com 1.10,2013-02-06 03:21:00,
2013-02-05 19:36:00,45.8,44.0,30.03,NNE,29,0.0,1.0,93,0.00,,,0.00,weatherlink.com 1.10,2013-02-06 03:36:00,
2013-02-05 19:52:00,45.4,44.0,30.03,NE,50,0.0,1.0,94,0.00,,,0.00,weatherlink.com 1.10,2013-02-06 03:52:00,
2013-02-05 20:07:00,44.9,43.0,30.03,East,94,1.0,1.0,94,0.00,,,0.00,weatherlink.com 1.10,2013-02-06 04:07:00,
2013-02-05 20:22:00,44.5,43.0,30.03,NNE,12,1.0,3.0,95,0.00,,,0.00,weatherlink.com 1.10,2013-02-06 04:22:00,
2013-02-05 20:37:00,44.0,43.0,30.04,NE,43,0.0,2.0,95,0.00,,,0.00,weatherlink.com 1.10,2013-02-06 04:37:00,
2013-02-05 20:51:00,43.6,42.0,30.04,NE,40,1.0,2.0,95,0.00,,,0.00,weatherlink.com 1.10,2013-02-06 04:51:00,
2013-02-05 21:06:00,43.2,42.0,30.04,ENE,60,0.0,1.0,95,0.00,,,0.00,weatherlink.com 1.10,2013-02-06 05:06:00,
2013-02-05 21:21:00,42.9,42.0,30.04,NE,34,0.0,1.0,96,0.00,,,0.00,weatherlink.com 1.10,2013-02-06 05:21:00,
2013-02-05 21:36:00,42.7,42.0,30.04,NE,44,0.0,1.0,96,0.00,,,0.00,weatherlink.com 1.10,2013-02-06 05:36:00,
2013-02-05 21:51:00,42.6,42.0,30.05,NE,43,0.0,2.0,96,0.00,,,0.00,weatherlink.com 1.10,2013-02-06 05:51:00,
2013-02-05 22:06:00,42.1,41.0,30.05,NNE,12,1.0,1.0,96,0.00,,,0.00,weatherlink.com 1.10,2013-02-06 06:06:00,
2013-02-05 22:21:00,42.0,41.0,30.05,NE,47,1.0,2.0,96,0.00,,,0.00,weatherlink.com 1.10,2013-02-06 06:21:00,
2013-02-05 22:36:00,41.6,41.0,30.05,East,82,0.0,1.0,96,0.00,,,0.00,weatherlink.com 1.10,2013-02-06 06:36:00,
2013-02-05 22:51:00,41.2,40.0,30.05,ENE,62,0.0,1.0,96,0.00,,,0.00,weatherlink.com 1.10,2013-02-06 06:51:00,
2013-02-05 23:06:00,40.9,40.0,30.05,East,79,0.0,1.0,96,0.00,,,0.00,weatherlink.com 1.10,2013-02-06 07:06:00,
2013-02-05 23:21:00,40.6,40.0,30.05,NNE,30,1.0,2.0,97,0.00,,,0.00,weatherlink.com 1.10,2013-02-06 07:21:00,
2013-02-05 23:36:00,40.4,40.0,30.06,East,80,1.0,1.0,97,0.00,,,0.00,weatherlink.com 1.10,2013-02-06 07:36:00,
2013-02-05 23:51:00,40.1,39.0,30.05,ENE,75,0.0,1.0,96,0.00,,,0.00,weatherlink.com 1.10,2013-02-06 07:51:00,